Погода в Жанауштогане

Погода в Жанауштогане : погода сейчас, прогноз погоды и архив. Всё, что Вы хотите узнать о погоде в Жанауштогане!

Хотите узнать прогноз погоды в Жанауштогане? Тогда Вам сюда: Погода в Жанауштогане

Поиск расширенной информации на нашем сайте:

Другие новости

Новости СМИ2

Главная страница сайта

Новости сайта

03.07.2017

Напоминаем, что на нашем специализированном сайте Метеоцентр.Азия вы можете получить высокодетализированные автоматические прогнозы погоды по пунктам России, СНГ и мира в авиационном формате (включающие направление и скорость ветра, видимость, явления погоды, количество и форму облачности, нижнюю и верхнюю границу облачности).


Погода в Жанауштогане - сегодня

Время (UTC), дата Ветер
(°,м/с) 
Видим.   Явления Облачность Т
(°С)
Тd
(°С)
f(%) Тe
(°С)
Pmin
(гПа)
dP
(гПа)
Po
(мм)
O2
(г/м3)
Тmin Tmax R s Состояние
почвы
18 17.04.18 тихо ()   20000 м    ясно 
+12.8 +4.3 56 +13  1019.2  0.4  765  294    +20.9       
21 17.04.18 тихо ()   20000 м    ясно 
+9.6 +4.6 71 +10  1020.2  766  297           
00 18.04.18 тихо ()   20000 м    ясно 
+7 +2.5 73 +7  1019.8  -0.4  766  300           
03 18.04.18 230 (ЮЗ) 20000 м    8/0 средняя 
[Ac trans]
+4.8 +0.1 72 +6  1020.4  0.6  766  303           
06 18.04.18 тихо ()   20000 м    8/3 600 м кучево-дожд., средняя 
[Cb calv|Ac trans]
+13.8 +2.5 46 +14  1020.6  0.2  766  294  +4.7         
09 18.04.18 тихо ()   20000 м    8/0 средняя 
[Ac trans]
+21 +5.8 37 +21  1019.5  -1.1  766  286           
12 18.04.18 270 (З) 20000 м    10/0 верхняя 
[Ci sp]
+21.8 +6.8 38 +22  1018.2  -1.3  765  284           
15 18.04.18 230 (ЮЗ) 20000 м    8/0 верхняя 
[Ci sp]
+19.8 +6.5 42 +21  1018  -0.2  764  286    +22.8       
18 18.04.18 230 (ЮЗ) 20000 м    10/0 средняя 
[Ac As]
+14.4 +6.8 60 +16  1017  -1  764  291    +22.8       
21 18.04.18 180 (Ю) 20000 м    10/0 средняя 
[Ac As]
+12.2 +5.6 64 +12  1015.6  -1.4  763  293           
00 19.04.18 180 (Ю) 20000 м    10/0 средняя 
[Ac As]
+10.8 +5.6 70 +11  1014.3  -1.3  762  294           
03 19.04.18 180 (Ю) 20000 м    10/0 средняя 
[Ac As]
+10 +4.5 69 +10  1012.9  -1.4  761  295           
06 19.04.18 200 (Ю) 20000 м  {ливн. осадки}  8/4 600 м кучево-дожд., средняя 
[Cb calv|Ac trans]
+9.8 +6.4 79 +9  1010.5  -2.4  759  294  +9.9         
09 19.04.18 200 (Ю) 20000 м    8/4 600 м кучево-дожд., средняя 
[Cb calv|Ac trans]
+12.8 +6.1 64 +12  1007.8  -2.7  757  290           
12 19.04.18 200 (Ю) 20000 м  пыльный позёмок  8/4 600 м кучево-дожд., средняя 
[Cb calv|Ac trans]
+18.7 +5.5 42 +19  1005.9  -1.9  755  284           
15 19.04.18 230 (ЮЗ) 20000 м  {ливн. осадки}  8/4 600 м кучево-дожд., средняя 
[Cb calv|Ac trans]
+15.3 +4.6 49 +17  1003.9  -2  754  287    +19.2       
18 19.04.18 тихо ()   20000 м  {ливн. осадки}  8/4 600 м кучево-дожд., средняя 
[Cb calv|Ac trans]
+12.4 +3.2 53 +12  1003.9  754  290    +19.2  0.5     
21 19.04.18 тихо ()   20000 м    3/0 средняя 
[Ac trans]
+9 +3.2 67 +9  1003.3  -0.6  753  293           
00 20.04.18 180 (Ю) 20000 м    ясно 
+9.6 +5 73 +10  1001.7  -1.6  752  292           
03 20.04.18 180 (Ю) 20000 м  гроза, пыльная буря{морось}  8/4 600 м кучево-дожд., средняя 
[Cb calv|Ac trans]
+9.2 +5 75 +10  1001.3  -0.4             
06 20.04.18 230 (ЮЗ) 20000 м    9/5 600 м кучево-дожд., средняя 
[Cb calv|Ac trans]
+11.2 +6.1 71 +10  1000.9  -0.4  752  290  +8.9         
09 20.04.18 180 (Ю) 20000 м    8/8 600 м кучево-дожд. 
[Cb calv]
+12.8 +7 68 +12  1000.6  -0.3  751  288           
15 20.04.18 270 (З) 20000 м    8/8 600 м кучево-дожд. 
[Cb calv]
+13.2 +8.8 75 +14  1000.6  0.8  751  287    +14.4       
18 20.04.18 250 (З) 20000 м    9/9 600 м кучево-дожд. 
[Cb calv]
+10 +6.8 80 +11  1002.2  1.6  753  291    +14.4     
21 20.04.18 тихо ()   20000 м    6/6 600 м кучево-дожд. 
[Cb calv]
+9.4 +6.8 84 +9  1002.5  0.3  753  292           
Время (UTC), дата Ветер
(°,м/с) 
Видим.   Явления Облачность Т
(°С)
Тd
(°С)
f(%) Тe
(°С)
Pmin
(гПа)
dP
(гПа)
Po
(мм)
O2
(г/м3)
Тmin Tmax R s Состояние
почвы

Для получения пояснительной информации подведите курсор к названию столбца.

ПОГОДА в Жанауштогане - архив

Всё, что Вы хотите узнать о погоде в Жанауштогане - удобно и подробно!

Выберите нужную дату (начиная с 1 января 2015* года) и нажмите кнопку "Найти".
Будут отображены архивные сводки погоды по пункту Жанауштоган, начиная с указанной даты.


Отображать данные в формате CSV (для использования в таблицах Excel)


Внимание! Наш архив погоды предназначен исключительно для личного некоммерческого использования в познавательных целях. Если Вам необходимы официальные справки о состоянии погоды (для производственных, юридических, коммерческих и т.п. целей), обращайтесь в органы Росгидромета.

*Примечание: данная дата относится к архиву по метеостанциям СССР (Россия, СНГ, Балтия).
Архив по метеостанциям Зарубежной Европы и Азии (кроме Китая) хранится 10 дней, по другим регионам земного шара (Китай, Африка, Америка, Австралия, Океания) - 1 день.

Жанауштоган - район местоположения метеостанции


Название, широта, долгота, высота метеостанции:
Жанауштоган 47.9°ш. 48.8°д. -10 м над ур. моря [Казахстан]

Дополнительная информация

В oтличие oт бoльшинства пoгoдных сайтoв мы публикуем пoдрoбную метеoинфoрмацию в детальнoм прoфессиoнальнoм фoрмате.

Характеристики температуры и влажнoсти вoздуха измеряются на высoте 2 м в тени вдали oт зданий и деревьев.
Скoрoсть ветра измеряется на высoте 10 м (на урoвне рoста челoвека скoрoсть ветра ниже в 1.5-2 раза). Если метеoстанция нахoдится в гoрoде или в лесу, тo скoрoсть ветра занижена на 2-4 м/с пo сравнению с oткрытым местoм. Скoрoсть ветра над акватoриями крупных рек и oзёр, а также на вершинах хoлмoв на 2-5 м/с выше, чем в oбычных услoвиях.
Атмoсфернoе давление в разных тoчках местнoсти мoжет значительнo oтличаться oт давления на метеoстанции, в зависимoсти oт услoвий рельефа (при пoдъёме на 10 м давление пoнижается примернo на 1 мм рт.ст.).